Time,TemperatureF,DewpointF,PressureIn,WindDirection,WindDirectionDegrees,WindSpeedMPH,WindSpeedGustMPH,Humidity,HourlyPrecipIn,Conditions,Clouds,dailyrainin,SoftwareType,DateUTC
2013-05-23 00:00:00,48.2,39.2,29.86,WNW,284,0.0,0.0,71,0.00,,,0.00,meteohub,2013-05-23 07:00:00,
2013-05-23 00:05:00,47.7,39.0,29.86,WNW,284,0.0,0.0,72,0.00,,,0.00,meteohub,2013-05-23 07:05:00,
2013-05-23 00:10:00,47.5,39.2,29.86,WNW,284,0.0,0.0,73,0.00,,,0.00,meteohub,2013-05-23 07:10:00,
2013-05-23 00:15:00,47.5,39.6,29.86,WNW,284,0.0,0.0,74,0.00,,,0.00,meteohub,2013-05-23 07:15:00,
2013-05-23 00:20:00,47.5,39.6,29.86,WNW,283,0.0,1.0,74,0.00,,,0.00,meteohub,2013-05-23 07:20:00,
2013-05-23 00:25:00,47.5,39.6,29.86,WNW,282,0.0,1.0,74,0.00,,,0.00,meteohub,2013-05-23 07:25:00,
2013-05-23 00:30:00,47.1,38.8,29.86,WNW,284,0.0,1.0,73,0.00,,,0.00,meteohub,2013-05-23 07:30:00,
2013-05-23 00:35:00,46.9,39.4,29.86,WNW,284,0.0,1.0,75,0.00,,,0.00,meteohub,2013-05-23 07:35:00,
2013-05-23 00:40:00,46.9,39.4,29.86,WNW,283,0.0,1.0,75,0.00,,,0.00,meteohub,2013-05-23 07:40:00,
2013-05-23 00:45:00,46.8,39.2,29.86,WNW,284,0.0,1.0,75,0.00,,,0.00,meteohub,2013-05-23 07:45:00,
2013-05-23 00:50:00,46.6,39.4,29.86,WNW,284,0.0,1.0,76,0.00,,,0.00,meteohub,2013-05-23 07:50:00,
2013-05-23 00:55:00,46.2,39.0,29.87,WNW,283,0.0,1.0,76,0.00,,,0.00,meteohub,2013-05-23 07:55:00,
2013-05-23 01:00:00,46.2,39.0,29.87,WNW,282,0.0,0.0,76,0.00,,,0.00,meteohub,2013-05-23 08:00:00,
2013-05-23 01:05:00,46.0,39.2,29.87,West,280,0.0,0.0,77,0.00,,,0.00,meteohub,2013-05-23 08:05:00,
2013-05-23 01:10:00,46.0,39.2,29.87,West,280,0.0,1.0,77,0.00,,,0.00,meteohub,2013-05-23 08:10:00,
2013-05-23 01:16:00,46.2,39.4,29.87,West,281,0.0,1.0,77,0.00,,,0.00,meteohub,2013-05-23 08:16:00,
2013-05-23 01:21:00,46.0,39.2,29.87,West,281,0.0,0.0,77,0.00,,,0.00,meteohub,2013-05-23 08:21:00,
2013-05-23 01:26:00,45.9,39.0,29.87,West,281,0.0,0.0,77,0.00,,,0.00,meteohub,2013-05-23 08:26:00,
2013-05-23 01:31:00,45.9,39.0,29.87,West,281,0.0,0.0,77,0.00,,,0.00,meteohub,2013-05-23 08:31:00,
2013-05-23 01:36:00,45.7,39.2,29.86,West,280,0.0,0.0,78,0.00,,,0.00,meteohub,2013-05-23 08:36:00,
2013-05-23 01:41:00,45.5,39.0,29.86,West,281,0.0,0.0,78,0.00,,,0.00,meteohub,2013-05-23 08:41:00,
2013-05-23 01:46:00,45.5,39.4,29.86,West,273,1.0,0.0,79,0.00,,,0.00,meteohub,2013-05-23 08:46:00,
2013-05-23 01:51:00,45.9,39.4,29.86,WNW,301,0.0,1.0,78,0.00,,,0.00,meteohub,2013-05-23 08:51:00,
2013-05-23 01:56:00,45.9,39.0,29.86,WNW,301,0.0,2.0,77,0.00,,,0.00,meteohub,2013-05-23 08:56:00,
2013-05-23 02:02:00,45.3,38.8,29.86,WNW,302,0.0,2.0,78,0.00,,,0.00,meteohub,2013-05-23 09:02:00,
2013-05-23 02:07:00,45.1,39.4,29.86,WNW,302,0.0,1.0,80,0.00,,,0.00,meteohub,2013-05-23 09:07:00,
2013-05-23 02:12:00,45.0,38.8,29.86,WNW,302,0.0,1.0,79,0.00,,,0.00,meteohub,2013-05-23 09:12:00,
2013-05-23 02:18:00,44.8,39.0,29.86,WNW,302,0.0,2.0,80,0.00,,,0.00,meteohub,2013-05-23 09:18:00,
2013-05-23 02:23:00,45.0,39.2,29.86,NE,44,0.0,2.0,80,0.00,,,0.00,meteohub,2013-05-23 09:23:00,
2013-05-23 02:28:00,45.0,39.2,29.86,NE,44,0.0,2.0,80,0.00,,,0.00,meteohub,2013-05-23 09:28:00,
2013-05-23 02:33:00,45.1,39.0,29.86,NE,43,0.0,2.0,79,0.00,,,0.00,meteohub,2013-05-23 09:33:00,
2013-05-23 02:38:00,45.1,39.4,29.86,NE,44,0.0,2.0,80,0.00,,,0.00,meteohub,2013-05-23 09:38:00,
2013-05-23 02:43:00,45.1,39.4,29.86,NE,44,0.0,2.0,80,0.00,,,0.00,meteohub,2013-05-23 09:43:00,
2013-05-23 02:48:00,44.8,38.7,29.86,NE,43,0.0,2.0,79,0.00,,,0.00,meteohub,2013-05-23 09:48:00,
2013-05-23 02:53:00,44.4,39.0,29.86,NE,43,0.0,1.0,81,0.00,,,0.00,meteohub,2013-05-23 09:53:00,
2013-05-23 02:58:00,44.2,38.8,29.86,NE,43,0.0,0.0,81,0.00,,,0.00,meteohub,2013-05-23 09:58:00,
2013-05-23 03:03:00,44.2,38.8,29.86,NE,43,0.0,0.0,81,0.00,,,0.00,meteohub,2013-05-23 10:03:00,
2013-05-23 03:08:00,44.1,38.7,29.86,WNW,296,0.0,1.0,81,0.00,,,0.00,meteohub,2013-05-23 10:08:00,
2013-05-23 03:13:00,43.9,38.5,29.86,WNW,296,0.0,1.0,81,0.00,,,0.00,meteohub,2013-05-23 10:13:00,
2013-05-23 03:18:00,43.5,38.1,29.86,WNW,296,0.0,0.0,81,0.00,,,0.00,meteohub,2013-05-23 10:18:00,
2013-05-23 03:23:00,43.2,38.1,29.86,WNW,296,0.0,0.0,82,0.00,,,0.00,meteohub,2013-05-23 10:23:00,
2013-05-23 03:28:00,43.2,38.7,29.86,North,11,1.0,0.0,84,0.00,,,0.00,meteohub,2013-05-23 10:28:00,
2013-05-23 03:33:00,44.1,39.2,29.86,NW,325,0.0,0.0,83,0.00,,,0.00,meteohub,2013-05-23 10:33:00,
2013-05-23 03:38:00,44.4,39.0,29.86,NW,325,0.0,1.0,81,0.00,,,0.00,meteohub,2013-05-23 10:38:00,
2013-05-23 03:43:00,44.6,39.2,29.86,NW,309,0.0,1.0,81,0.00,,,0.00,meteohub,2013-05-23 10:43:00,
2013-05-23 03:48:00,44.8,39.4,29.86,WNW,288,1.0,1.0,81,0.00,,,0.00,meteohub,2013-05-23 10:48:00,
2013-05-23 03:53:00,45.0,39.2,29.86,WNW,288,0.0,1.0,80,0.00,,,0.00,meteohub,2013-05-23 10:53:00,
2013-05-23 03:58:00,44.8,39.0,29.86,WNW,288,0.0,1.0,80,0.00,,,0.00,meteohub,2013-05-23 10:58:00,
2013-05-23 04:03:00,44.4,39.0,29.86,WNW,288,0.0,1.0,81,0.00,,,0.00,meteohub,2013-05-23 11:03:00,
2013-05-23 04:08:00,44.2,38.8,29.86,WNW,288,0.0,1.0,81,0.00,,,0.00,meteohub,2013-05-23 11:08:00,
2013-05-23 04:13:00,44.2,39.0,29.86,WNW,290,0.0,1.0,82,0.00,,,0.00,meteohub,2013-05-23 11:13:00,
2013-05-23 04:18:00,44.1,38.7,29.86,WNW,289,0.0,0.0,81,0.00,,,0.00,meteohub,2013-05-23 11:18:00,
2013-05-23 04:23:00,43.9,38.7,29.86,WNW,288,1.0,0.0,82,0.00,,,0.00,meteohub,2013-05-23 11:23:00,
2013-05-23 04:28:00,43.9,39.0,29.86,NE,38,0.0,1.0,83,0.00,,,0.00,meteohub,2013-05-23 11:28:00,
2013-05-23 04:33:00,44.1,38.8,29.86,NE,37,0.0,1.0,82,0.00,,,0.00,meteohub,2013-05-23 11:33:00,
2013-05-23 04:38:00,44.1,38.8,29.86,NE,38,0.0,1.0,82,0.00,,,0.00,meteohub,2013-05-23 11:38:00,
2013-05-23 04:44:00,43.9,38.7,29.86,NE,39,1.0,0.0,82,0.00,,,0.00,meteohub,2013-05-23 11:44:00,
2013-05-23 04:49:00,43.7,38.5,29.86,NE,38,0.0,0.0,82,0.00,,,0.00,meteohub,2013-05-23 11:49:00,
2013-05-23 04:54:00,43.5,38.5,29.87,NE,38,0.0,0.0,82,0.00,,,0.00,meteohub,2013-05-23 11:54:00,
2013-05-23 04:59:00,43.5,38.7,29.87,NE,46,1.0,0.0,83,0.00,,,0.00,meteohub,2013-05-23 11:59:00,
2013-05-23 05:04:00,43.7,38.5,29.87,NNW,333,0.0,0.0,82,0.00,,,0.00,meteohub,2013-05-23 12:04:00,
2013-05-23 05:09:00,43.7,38.5,29.87,East,88,0.0,2.0,82,0.00,,,0.00,meteohub,2013-05-23 12:09:00,
2013-05-23 05:14:00,43.5,38.7,29.87,East,88,0.0,2.0,83,0.00,,,0.00,meteohub,2013-05-23 12:14:00,
2013-05-23 05:19:00,43.3,38.5,29.87,East,88,0.0,2.0,83,0.00,,,0.00,meteohub,2013-05-23 12:19:00,
2013-05-23 05:24:00,43.2,38.3,29.87,East,87,0.0,2.0,83,0.00,,,0.00,meteohub,2013-05-23 12:24:00,
2013-05-23 05:29:00,43.0,38.5,29.87,East,87,0.0,0.0,84,0.00,,,0.00,meteohub,2013-05-23 12:29:00,
2013-05-23 05:34:00,42.6,38.1,29.87,East,87,0.0,0.0,84,0.00,,,0.00,meteohub,2013-05-23 12:34:00,
2013-05-23 05:39:00,42.3,37.4,29.87,East,87,0.0,0.0,83,0.00,,,0.00,meteohub,2013-05-23 12:39:00,
2013-05-23 05:44:00,41.9,37.8,29.87,East,87,0.0,2.0,85,0.00,,,0.00,meteohub,2013-05-23 12:44:00,
2013-05-23 05:49:00,41.5,37.6,29.87,WNW,303,1.0,2.0,86,0.00,,,0.00,meteohub,2013-05-23 12:49:00,
2013-05-23 05:56:00,41.4,37.6,29.88,WNW,302,0.0,2.0,86,0.00,,,0.00,meteohub,2013-05-23 12:56:00,
2013-05-23 06:01:00,41.2,37.4,29.88,WNW,301,0.0,2.0,86,0.00,,,0.00,meteohub,2013-05-23 13:01:00,
2013-05-23 06:07:00,41.0,37.2,29.88,WNW,301,0.0,2.0,86,0.00,,,0.00,meteohub,2013-05-23 13:07:00,
2013-05-23 06:12:00,41.2,37.4,29.88,WNW,301,0.0,1.0,86,0.00,,,0.00,meteohub,2013-05-23 13:12:00,
2013-05-23 06:17:00,40.8,37.0,29.88,WNW,301,0.0,0.0,86,0.00,,,0.00,meteohub,2013-05-23 13:17:00,
2013-05-23 06:22:00,40.6,37.0,29.89,WNW,301,0.0,0.0,87,0.00,,,0.00,meteohub,2013-05-23 13:22:00,
2013-05-23 06:27:00,40.6,37.0,29.89,WNW,302,0.0,0.0,87,0.00,,,0.00,meteohub,2013-05-23 13:27:00,
2013-05-23 06:32:00,40.8,37.2,29.89,WNW,302,0.0,0.0,87,0.00,,,0.00,meteohub,2013-05-23 13:32:00,
2013-05-23 06:37:00,40.8,37.2,29.89,WNW,302,0.0,0.0,87,0.00,,,0.00,meteohub,2013-05-23 13:37:00,
2013-05-23 06:42:00,40.8,37.2,29.89,WNW,302,0.0,0.0,87,0.00,,,0.00,meteohub,2013-05-23 13:42:00,
2013-05-23 06:47:00,40.8,37.2,29.89,WNW,302,0.0,0.0,87,0.00,,,0.00,meteohub,2013-05-23 13:47:00,
2013-05-23 06:52:00,41.2,37.6,29.89,WNW,302,0.0,0.0,87,0.00,,,0.00,meteohub,2013-05-23 13:52:00,
2013-05-23 06:57:00,42.3,38.7,29.89,NNW,331,0.0,0.0,87,0.00,,,0.00,meteohub,2013-05-23 13:57:00,
2013-05-23 07:02:00,43.7,39.6,29.89,NNW,338,0.0,1.0,85,0.00,,,0.00,meteohub,2013-05-23 14:02:00,
2013-05-23 07:07:00,45.3,40.1,29.89,NNW,338,0.0,1.0,82,0.00,,,0.00,meteohub,2013-05-23 14:07:00,
2013-05-23 07:12:00,46.9,40.5,29.89,NNW,338,0.0,1.0,78,0.00,,,0.00,meteohub,2013-05-23 14:12:00,
2013-05-23 07:17:00,47.8,40.3,29.89,NNW,338,0.0,1.0,75,0.00,,,0.00,meteohub,2013-05-23 14:17:00,
2013-05-23 07:22:00,48.6,40.6,29.89,NNW,338,0.0,1.0,74,0.00,,,0.00,meteohub,2013-05-23 14:22:00,
2013-05-23 07:27:00,49.5,41.2,29.89,NNW,338,0.0,1.0,73,0.00,,,0.00,meteohub,2013-05-23 14:27:00,
2013-05-23 07:32:00,50.7,41.0,29.89,NNW,337,0.0,1.0,69,0.00,,,0.00,meteohub,2013-05-23 14:32:00,
2013-05-23 07:37:00,50.7,40.5,29.89,NNW,338,0.0,1.0,68,0.00,,,0.00,meteohub,2013-05-23 14:37:00,
2013-05-23 07:42:00,50.2,40.1,29.89,WSW,245,0.0,1.0,68,0.00,,,0.00,meteohub,2013-05-23 14:42:00,
2013-05-23 07:47:00,49.8,39.7,29.89,WNW,283,2.0,2.0,68,0.00,,,0.00,meteohub,2013-05-23 14:47:00,
2013-05-23 07:52:00,49.6,39.9,29.89,WNW,292,0.0,4.0,69,0.00,,,0.00,meteohub,2013-05-23 14:52:00,
2013-05-23 07:57:00,49.8,39.7,29.89,West,269,0.0,3.0,68,0.00,,,0.00,meteohub,2013-05-23 14:57:00,
2013-05-23 08:02:00,50.5,39.9,29.89,NW,326,1.0,3.0,67,0.00,,,0.00,meteohub,2013-05-23 15:02:00,
2013-05-23 08:07:00,50.5,39.9,29.89,NNE,19,0.0,4.0,67,0.00,,,0.00,meteohub,2013-05-23 15:07:00,
2013-05-23 08:12:00,50.7,39.7,29.89,WNW,300,2.0,4.0,66,0.00,,,0.00,meteohub,2013-05-23 15:12:00,
2013-05-23 08:17:00,51.1,40.1,29.89,NNW,333,3.0,6.0,66,0.00,,,0.00,meteohub,2013-05-23 15:17:00,
2013-05-23 08:22:00,51.1,39.7,29.90,NNW,332,5.0,6.0,65,0.00,,,0.00,meteohub,2013-05-23 15:22:00,
2013-05-23 08:27:00,51.1,39.7,29.90,West,273,5.0,7.0,65,0.00,,,0.00,meteohub,2013-05-23 15:27:00,
2013-05-23 08:32:00,51.3,39.9,29.90,West,277,1.0,7.0,65,0.00,,,0.00,meteohub,2013-05-23 15:32:00,
2013-05-23 08:37:00,51.6,40.3,29.91,NNW,334,3.0,7.0,65,0.00,,,0.00,meteohub,2013-05-23 15:37:00,
2013-05-23 08:43:00,52.2,40.3,29.91,NNW,345,4.0,7.0,64,0.00,,,0.00,meteohub,2013-05-23 15:43:00,
2013-05-23 08:48:00,52.5,40.6,29.91,West,277,2.0,7.0,64,0.00,,,0.00,meteohub,2013-05-23 15:48:00,
2013-05-23 08:53:00,53.1,40.5,29.91,West,275,1.0,7.0,62,0.00,,,0.00,meteohub,2013-05-23 15:53:00,
2013-05-23 08:58:00,53.4,40.3,29.91,WNW,283,6.0,6.0,61,0.00,,,0.00,meteohub,2013-05-23 15:58:00,
2013-05-23 09:03:00,54.0,40.5,29.91,NNE,20,2.0,6.0,60,0.00,,,0.00,meteohub,2013-05-23 16:03:00,
2013-05-23 09:08:00,54.5,40.5,29.91,West,273,2.0,9.0,59,0.00,,,0.00,meteohub,2013-05-23 16:08:00,
2013-05-23 09:13:00,54.7,40.3,29.91,WNW,286,0.0,6.0,58,0.00,,,0.00,meteohub,2013-05-23 16:13:00,
2013-05-23 09:18:00,55.4,40.8,29.91,West,277,0.0,5.0,58,0.00,,,0.00,meteohub,2013-05-23 16:18:00,
2013-05-23 09:23:00,55.2,40.3,29.91,West,281,3.0,9.0,57,0.00,,,0.00,meteohub,2013-05-23 16:23:00,
2013-05-23 09:28:00,55.6,40.6,29.91,WSW,246,0.0,9.0,57,0.00,,,0.00,meteohub,2013-05-23 16:28:00,
2013-05-23 09:33:00,56.3,40.8,29.91,ESE,115,0.0,9.0,56,0.00,,,0.00,meteohub,2013-05-23 16:33:00,
2013-05-23 09:38:00,56.8,40.8,29.91,NNW,340,3.0,3.0,55,0.00,,,0.00,meteohub,2013-05-23 16:38:00,
2013-05-23 09:43:00,56.7,40.3,29.91,WNW,292,1.0,6.0,54,0.00,,,0.00,meteohub,2013-05-23 16:43:00,
2013-05-23 09:48:00,56.8,40.8,29.91,ESE,116,1.0,6.0,55,0.00,,,0.00,meteohub,2013-05-23 16:48:00,
2013-05-23 09:53:00,57.4,39.9,29.91,NE,41,1.0,3.0,52,0.00,,,0.00,meteohub,2013-05-23 16:53:00,
2013-05-23 09:58:00,57.7,40.6,29.91,SW,217,1.0,4.0,53,0.00,,,0.00,meteohub,2013-05-23 16:58:00,
2013-05-23 10:03:00,58.5,40.8,29.91,South,179,1.0,4.0,52,0.00,,,0.00,meteohub,2013-05-23 17:03:00,
2013-05-23 10:08:00,58.5,40.5,29.91,NNW,338,1.0,4.0,51,0.00,,,0.00,meteohub,2013-05-23 17:08:00,
2013-05-23 10:13:00,59.0,41.4,29.91,SSE,156,2.0,4.0,52,0.00,,,0.00,meteohub,2013-05-23 17:13:00,
2013-05-23 10:18:00,60.1,41.4,29.91,SE,129,1.0,4.0,50,0.00,,,0.00,meteohub,2013-05-23 17:18:00,
2013-05-23 10:23:00,60.4,41.2,29.91,West,277,3.0,5.0,49,0.00,,,0.00,meteohub,2013-05-23 17:23:00,
2013-05-23 10:28:00,60.4,40.6,29.91,WNW,290,4.0,5.0,48,0.00,,,0.00,meteohub,2013-05-23 17:28:00,
2013-05-23 10:33:00,60.4,40.6,29.91,NNE,31,0.0,6.0,48,0.00,,,0.00,meteohub,2013-05-23 17:33:00,
2013-05-23 10:38:00,61.2,40.8,29.91,ENE,58,2.0,6.0,47,0.00,,,0.00,meteohub,2013-05-23 17:38:00,
2013-05-23 10:43:00,61.5,40.5,29.91,NNE,18,2.0,6.0,46,0.00,,,0.00,meteohub,2013-05-23 17:43:00,
2013-05-23 10:48:00,61.0,40.6,29.91,NW,309,2.0,5.0,47,0.00,,,0.00,meteohub,2013-05-23 17:48:00,
2013-05-23 10:53:00,61.3,41.0,29.91,SSE,149,0.0,5.0,47,0.00,,,0.00,meteohub,2013-05-23 17:53:00,
2013-05-23 10:58:00,61.3,41.0,29.91,ENE,77,2.0,5.0,47,0.00,,,0.00,meteohub,2013-05-23 17:58:00,
2013-05-23 11:03:00,62.2,41.7,29.91,SSW,202,4.0,5.0,47,0.00,,,0.00,meteohub,2013-05-23 18:03:00,
2013-05-23 11:08:00,63.0,41.4,29.91,SSE,163,1.0,7.0,45,0.00,,,0.00,meteohub,2013-05-23 18:08:00,
2013-05-23 11:14:00,63.7,41.9,29.91,WNW,286,2.0,7.0,45,0.00,,,0.00,meteohub,2013-05-23 18:14:00,
2013-05-23 11:19:00,63.9,42.1,29.91,WNW,290,3.0,7.0,45,0.00,,,0.00,meteohub,2013-05-23 18:19:00,
2013-05-23 11:24:00,63.9,41.5,29.91,West,275,2.0,5.0,44,0.00,,,0.00,meteohub,2013-05-23 18:24:00,
2013-05-23 11:29:00,64.4,41.4,29.91,South,188,2.0,5.0,43,0.00,,,0.00,meteohub,2013-05-23 18:29:00,
2013-05-23 11:34:00,64.6,41.5,29.91,West,271,4.0,7.0,43,0.00,,,0.00,meteohub,2013-05-23 18:34:00,
2013-05-23 11:39:00,64.6,42.3,29.92,West,281,2.0,9.0,44,0.00,,,0.00,meteohub,2013-05-23 18:39:00,
2013-05-23 11:44:00,64.9,41.9,29.92,West,264,2.0,9.0,43,0.00,,,0.00,meteohub,2013-05-23 18:44:00,
2013-05-23 11:49:00,64.9,41.4,29.92,West,278,1.0,6.0,42,0.00,,,0.00,meteohub,2013-05-23 18:49:00,
2013-05-23 11:54:00,65.8,42.1,29.92,NNW,328,4.0,7.0,42,0.00,,,0.00,meteohub,2013-05-23 18:54:00,
2013-05-23 11:59:00,65.7,40.6,29.92,WNW,295,3.0,7.0,40,0.00,,,0.00,meteohub,2013-05-23 18:59:00,
2013-05-23 12:04:00,65.7,41.4,29.92,WSW,240,3.0,9.0,41,0.00,,,0.00,meteohub,2013-05-23 19:04:00,
2013-05-23 12:09:00,65.8,41.5,29.92,NW,313,5.0,9.0,41,0.00,,,0.00,meteohub,2013-05-23 19:09:00,
2013-05-23 12:14:00,66.0,41.7,29.92,West,279,5.0,9.0,41,0.00,,,0.00,meteohub,2013-05-23 19:14:00,
2013-05-23 12:19:00,66.0,41.0,29.92,SW,233,2.0,9.0,40,0.00,,,0.00,meteohub,2013-05-23 19:19:00,
2013-05-23 12:24:00,66.9,41.9,29.91,West,259,7.0,7.0,40,0.00,,,0.00,meteohub,2013-05-23 19:24:00,
2013-05-23 12:29:00,66.6,41.5,29.91,West,272,1.0,10.0,40,0.00,,,0.00,meteohub,2013-05-23 19:29:00,
2013-05-23 12:34:00,67.1,40.6,29.91,SSW,202,3.0,10.0,38,0.00,,,0.00,meteohub,2013-05-23 19:34:00,
2013-05-23 12:39:00,67.6,41.7,29.91,West,259,2.0,10.0,39,0.00,,,0.00,meteohub,2013-05-23 19:39:00,
2013-05-23 12:44:00,68.4,41.7,29.91,SW,214,5.0,8.0,38,0.00,,,0.00,meteohub,2013-05-23 19:44:00,
2013-05-23 12:49:00,68.4,41.7,29.91,South,187,5.0,10.0,38,0.00,,,0.00,meteohub,2013-05-23 19:49:00,
2013-05-23 12:54:00,69.1,41.7,29.91,SSW,209,2.0,10.0,37,0.00,,,0.00,meteohub,2013-05-23 19:54:00,
2013-05-23 12:59:00,69.6,41.5,29.91,SSW,192,4.0,10.0,36,0.00,,,0.00,meteohub,2013-05-23 19:59:00,
2013-05-23 13:05:00,69.8,41.0,29.91,WSW,257,6.0,9.0,35,0.00,,,0.00,meteohub,2013-05-23 20:05:00,
2013-05-23 13:10:00,69.3,41.2,29.91,South,179,4.0,7.0,36,0.00,,,0.00,meteohub,2013-05-23 20:10:00,
2013-05-23 13:15:00,69.6,41.5,29.91,SW,226,4.0,9.0,36,0.00,,,0.00,meteohub,2013-05-23 20:15:00,
2013-05-23 13:20:00,69.4,41.4,29.91,SSW,199,3.0,12.0,36,0.00,,,0.00,meteohub,2013-05-23 20:20:00,
2013-05-23 13:25:00,69.4,40.6,29.91,SSW,209,6.0,12.0,35,0.00,,,0.00,meteohub,2013-05-23 20:25:00,
2013-05-23 13:30:00,68.7,42.8,29.91,SW,233,2.0,12.0,39,0.00,,,0.00,meteohub,2013-05-23 20:30:00,
2013-05-23 13:35:00,69.6,43.5,29.91,SW,221,7.0,12.0,39,0.00,,,0.00,meteohub,2013-05-23 20:35:00,
2013-05-23 13:40:00,69.1,42.4,29.91,SSE,165,7.0,16.0,38,0.00,,,0.00,meteohub,2013-05-23 20:40:00,
2013-05-23 13:45:00,69.4,42.8,29.91,SSE,159,3.0,16.0,38,0.00,,,0.00,meteohub,2013-05-23 20:45:00,
2013-05-23 13:50:00,70.3,43.5,29.91,SW,218,5.0,16.0,38,0.00,,,0.00,meteohub,2013-05-23 20:50:00,
2013-05-23 13:55:00,69.4,42.8,29.91,SSW,194,10.0,12.0,38,0.00,,,0.00,meteohub,2013-05-23 20:55:00,
2013-05-23 14:00:00,69.1,43.2,29.91,ESE,116,4.0,13.0,39,0.00,,,0.00,meteohub,2013-05-23 21:00:00,
2013-05-23 14:05:00,69.1,43.2,29.91,SSW,205,5.0,13.0,39,0.00,,,0.00,meteohub,2013-05-23 21:05:00,
2013-05-23 14:10:00,69.1,43.2,29.91,SSE,148,5.0,13.0,39,0.00,,,0.00,meteohub,2013-05-23 21:10:00,
2013-05-23 14:15:00,69.6,43.5,29.91,SSW,205,3.0,12.0,39,0.00,,,0.00,meteohub,2013-05-23 21:15:00,
2013-05-23 14:20:00,69.8,44.4,29.91,SSE,165,5.0,12.0,40,0.00,,,0.00,meteohub,2013-05-23 21:20:00,
2013-05-23 14:25:00,69.4,44.1,29.91,SSE,162,3.0,15.0,40,0.00,,,0.00,meteohub,2013-05-23 21:25:00,
2013-05-23 14:30:00,69.6,43.5,29.91,WSW,240,5.0,15.0,39,0.00,,,0.00,meteohub,2013-05-23 21:30:00,
2013-05-23 14:35:00,69.1,43.7,29.91,SSE,152,3.0,15.0,40,0.00,,,0.00,meteohub,2013-05-23 21:35:00,
2013-05-23 14:40:00,69.6,44.2,29.91,SSW,198,3.0,13.0,40,0.00,,,0.00,meteohub,2013-05-23 21:40:00,
2013-05-23 14:45:00,69.6,44.2,29.91,SSW,207,2.0,13.0,40,0.00,,,0.00,meteohub,2013-05-23 21:45:00,
2013-05-23 14:50:00,69.3,43.9,29.91,SSW,209,6.0,13.0,40,0.00,,,0.00,meteohub,2013-05-23 21:50:00,
2013-05-23 14:55:00,69.3,43.9,29.91,SSW,211,6.0,14.0,40,0.00,,,0.00,meteohub,2013-05-23 21:55:00,
2013-05-23 15:00:00,69.6,44.2,29.91,SSW,209,3.0,14.0,40,0.00,,,0.00,meteohub,2013-05-23 22:00:00,
2013-05-23 15:05:00,69.4,44.1,29.91,South,188,5.0,14.0,40,0.00,,,0.00,meteohub,2013-05-23 22:05:00,
2013-05-23 15:10:00,69.4,44.1,29.91,WSW,240,9.0,14.0,40,0.00,,,0.00,meteohub,2013-05-23 22:10:00,
2013-05-23 15:15:00,68.4,43.2,29.91,South,182,14.0,16.0,40,0.00,,,0.00,meteohub,2013-05-23 22:15:00,
2013-05-23 15:20:00,68.7,43.3,29.92,SSE,161,5.0,16.0,40,0.00,,,0.00,meteohub,2013-05-23 22:20:00,
2013-05-23 15:25:00,68.9,43.0,29.92,SW,221,7.0,16.0,39,0.00,,,0.00,meteohub,2013-05-23 22:25:00,
2013-05-23 15:30:00,69.1,43.2,29.92,SSE,156,3.0,14.0,39,0.00,,,0.00,meteohub,2013-05-23 22:30:00,
2013-05-23 15:35:00,69.1,42.4,29.92,South,191,12.0,12.0,38,0.00,,,0.00,meteohub,2013-05-23 22:35:00,
2013-05-23 15:41:00,68.7,41.4,29.92,SW,215,6.0,12.0,37,0.00,,,0.00,meteohub,2013-05-23 22:41:00,
2013-05-23 15:46:00,68.4,41.0,29.92,SSW,204,9.0,12.0,37,0.00,,,0.00,meteohub,2013-05-23 22:46:00,
2013-05-23 15:51:00,68.4,41.0,29.92,SW,214,4.0,12.0,37,0.00,,,0.00,meteohub,2013-05-23 22:51:00,
2013-05-23 15:56:00,69.1,41.0,29.92,SSE,149,3.0,11.0,36,0.00,,,0.00,meteohub,2013-05-23 22:56:00,
2013-05-23 16:01:00,69.4,41.4,29.92,SW,232,2.0,11.0,36,0.00,,,0.00,meteohub,2013-05-23 23:01:00,
2013-05-23 16:06:00,69.6,40.8,29.91,SW,232,2.0,11.0,35,0.00,,,0.00,meteohub,2013-05-23 23:06:00,
2013-05-23 16:11:00,69.8,39.4,29.91,SSW,193,11.0,12.0,33,0.00,,,0.00,meteohub,2013-05-23 23:11:00,
2013-05-23 16:16:00,70.2,39.7,29.91,SW,236,4.0,12.0,33,0.00,,,0.00,meteohub,2013-05-23 23:16:00,
2013-05-23 16:21:00,70.2,40.5,29.91,SSE,152,2.0,12.0,34,0.00,,,0.00,meteohub,2013-05-23 23:21:00,
2013-05-23 16:26:00,70.5,40.1,29.91,South,188,4.0,12.0,33,0.00,,,0.00,meteohub,2013-05-23 23:26:00,
2013-05-23 16:31:00,70.3,40.6,29.91,SSE,148,4.0,9.0,34,0.00,,,0.00,meteohub,2013-05-23 23:31:00,
2013-05-23 16:36:00,70.3,40.6,29.91,West,268,1.0,9.0,34,0.00,,,0.00,meteohub,2013-05-23 23:36:00,
2013-05-23 16:41:00,71.2,41.4,29.91,WNW,303,3.0,10.0,34,0.00,,,0.00,meteohub,2013-05-23 23:41:00,
2013-05-23 16:46:00,70.7,40.1,29.91,NW,305,2.0,10.0,33,0.00,,,0.00,meteohub,2013-05-23 23:46:00,
2013-05-23 16:51:00,70.9,40.3,29.91,WNW,286,1.0,9.0,33,0.00,,,0.00,meteohub,2013-05-23 23:51:00,
2013-05-23 16:56:00,71.1,41.4,29.91,SW,232,2.0,7.0,34,0.00,,,0.00,meteohub,2013-05-23 23:56:00,
2013-05-23 17:01:00,71.4,40.8,29.91,South,171,1.0,6.0,33,0.00,,,0.00,meteohub,2013-05-24 00:01:00,
2013-05-23 17:06:00,71.6,41.0,29.91,WSW,254,3.0,7.0,33,0.00,,,0.00,meteohub,2013-05-24 00:06:00,
2013-05-23 17:11:00,71.1,40.5,29.91,West,273,3.0,7.0,33,0.00,,,0.00,meteohub,2013-05-24 00:11:00,
2013-05-23 17:16:00,70.7,41.0,29.91,SSW,211,3.0,7.0,34,0.00,,,0.00,meteohub,2013-05-24 00:16:00,
2013-05-23 17:21:00,71.2,40.6,29.91,SSW,203,1.0,7.0,33,0.00,,,0.00,meteohub,2013-05-24 00:21:00,
2013-05-23 17:26:00,72.1,40.6,29.91,WSW,248,2.0,6.0,32,0.00,,,0.00,meteohub,2013-05-24 00:26:00,
2013-05-23 17:31:00,71.8,40.3,29.91,NE,44,2.0,6.0,32,0.00,,,0.00,meteohub,2013-05-24 00:31:00,
2013-05-23 17:36:00,72.3,40.8,29.91,WNW,291,2.0,6.0,32,0.00,,,0.00,meteohub,2013-05-24 00:36:00,
2013-05-23 17:41:00,72.5,41.0,29.91,South,187,2.0,6.0,32,0.00,,,0.00,meteohub,2013-05-24 00:41:00,
2013-05-23 17:46:00,73.0,41.4,29.91,SW,219,4.0,5.0,32,0.00,,,0.00,meteohub,2013-05-24 00:46:00,
2013-05-23 17:51:00,73.0,41.4,29.90,SW,236,1.0,5.0,32,0.00,,,0.00,meteohub,2013-05-24 00:51:00,
2013-05-23 17:56:00,72.7,41.2,29.90,WNW,290,9.0,9.0,32,0.00,,,0.00,meteohub,2013-05-24 00:56:00,
2013-05-23 18:01:00,72.3,41.5,29.90,NW,314,2.0,9.0,33,0.00,,,0.00,meteohub,2013-05-24 01:01:00,
2013-05-23 18:06:00,71.8,41.2,29.90,West,280,5.0,10.0,33,0.00,,,0.00,meteohub,2013-05-24 01:06:00,
2013-05-23 18:11:00,71.1,41.4,29.90,West,271,6.0,10.0,34,0.00,,,0.00,meteohub,2013-05-24 01:11:00,
2013-05-23 18:17:00,71.1,41.4,29.90,NW,319,10.0,10.0,34,0.00,,,0.00,meteohub,2013-05-24 01:17:00,
2013-05-23 18:22:00,71.1,41.4,29.89,West,281,4.0,10.0,34,0.00,,,0.00,meteohub,2013-05-24 01:22:00,
2013-05-23 18:27:00,71.1,41.4,29.89,West,262,3.0,10.0,34,0.00,,,0.00,meteohub,2013-05-24 01:27:00,
2013-05-23 18:32:00,70.9,43.3,29.89,WNW,298,1.0,9.0,37,0.00,,,0.00,meteohub,2013-05-24 01:32:00,
2013-05-23 18:37:00,71.1,44.2,29.89,WSW,242,2.0,9.0,38,0.00,,,0.00,meteohub,2013-05-24 01:37:00,
2013-05-23 18:42:00,71.2,44.2,29.89,WNW,290,7.0,9.0,38,0.00,,,0.00,meteohub,2013-05-24 01:42:00,
2013-05-23 18:47:00,70.9,44.8,29.89,WNW,288,3.0,7.0,39,0.00,,,0.00,meteohub,2013-05-24 01:47:00,
2013-05-23 18:52:00,70.3,44.2,29.91,WSW,240,5.0,10.0,39,0.00,,,0.00,meteohub,2013-05-24 01:52:00,
2013-05-23 18:57:00,69.4,44.8,29.91,SSW,199,1.0,10.0,41,0.00,,,0.00,meteohub,2013-05-24 01:57:00,
2013-05-23 19:02:00,68.7,44.8,29.91,SW,221,5.0,12.0,42,0.00,,,0.00,meteohub,2013-05-24 02:02:00,
2013-05-23 19:07:00,68.5,44.6,29.91,NW,326,3.0,12.0,42,0.00,,,0.00,meteohub,2013-05-24 02:07:00,
2013-05-23 19:12:00,68.4,43.2,29.91,WNW,290,2.0,12.0,40,0.00,,,0.00,meteohub,2013-05-24 02:12:00,
2013-05-23 19:17:00,68.4,44.4,29.91,WSW,240,0.0,11.0,42,0.00,,,0.00,meteohub,2013-05-24 02:17:00,
2013-05-23 19:22:00,68.4,45.0,29.91,West,265,1.0,11.0,43,0.00,,,0.00,meteohub,2013-05-24 02:22:00,
2013-05-23 19:27:00,67.8,41.9,29.91,West,271,2.0,5.0,39,0.00,,,0.00,meteohub,2013-05-24 02:27:00,
2013-05-23 19:32:00,67.5,41.7,29.91,WNW,288,3.0,7.0,39,0.00,,,0.00,meteohub,2013-05-24 02:32:00,
2013-05-23 19:37:00,67.1,41.9,29.91,West,277,1.0,9.0,40,0.00,,,0.00,meteohub,2013-05-24 02:37:00,
2013-05-23 19:42:00,66.7,41.7,29.91,West,281,5.0,9.0,40,0.00,,,0.00,meteohub,2013-05-24 02:42:00,
2013-05-23 19:47:00,66.6,40.8,29.91,WSW,254,1.0,9.0,39,0.00,,,0.00,meteohub,2013-05-24 02:47:00,
2013-05-23 19:52:00,66.4,41.4,29.91,WSW,242,0.0,9.0,40,0.00,,,0.00,meteohub,2013-05-24 02:52:00,
2013-05-23 19:57:00,66.4,41.4,29.91,NE,50,2.0,6.0,40,0.00,,,0.00,meteohub,2013-05-24 02:57:00,
2013-05-23 20:02:00,65.8,40.8,29.91,SW,236,2.0,6.0,40,0.00,,,0.00,meteohub,2013-05-24 03:02:00,
2013-05-23 20:07:00,65.1,40.8,29.91,SW,229,0.0,5.0,41,0.00,,,0.00,meteohub,2013-05-24 03:07:00,
2013-05-23 20:12:00,64.6,41.0,29.91,West,264,0.0,5.0,42,0.00,,,0.00,meteohub,2013-05-24 03:12:00,
2013-05-23 20:17:00,64.0,40.5,29.91,West,273,2.0,4.0,42,0.00,,,0.00,meteohub,2013-05-24 03:17:00,
2013-05-23 20:22:00,63.7,40.8,29.91,West,273,2.0,4.0,43,0.00,,,0.00,meteohub,2013-05-24 03:22:00,
2013-05-23 20:27:00,63.3,41.0,29.91,West,260,2.0,2.0,44,0.00,,,0.00,meteohub,2013-05-24 03:27:00,
2013-05-23 20:32:00,62.8,40.5,29.91,West,265,0.0,2.0,44,0.00,,,0.00,meteohub,2013-05-24 03:32:00,
2013-05-23 20:37:00,62.4,40.8,29.92,SW,233,0.0,6.0,45,0.00,,,0.00,meteohub,2013-05-24 03:37:00,
2013-05-23 20:43:00,62.1,40.5,29.92,West,280,1.0,6.0,45,0.00,,,0.00,meteohub,2013-05-24 03:43:00,
2013-05-23 20:48:00,61.9,40.8,29.92,West,267,1.0,6.0,46,0.00,,,0.00,meteohub,2013-05-24 03:48:00,
2013-05-23 20:53:00,61.3,40.5,29.92,West,267,1.0,5.0,46,0.00,,,0.00,meteohub,2013-05-24 03:53:00,
2013-05-23 20:58:00,61.2,40.8,29.92,West,267,0.0,1.0,47,0.00,,,0.00,meteohub,2013-05-24 03:58:00,
2013-05-23 21:01:00,61.0,40.6,29.92,West,267,3.0,3.0,47,0.00,,,0.00,meteohub,2013-05-24 04:01:00,
2013-05-23 21:07:00,60.6,40.8,29.92,WNW,298,1.0,5.0,48,0.00,,,0.00,meteohub,2013-05-24 04:07:00,
2013-05-23 21:08:00,60.4,40.6,29.92,NW,307,1.0,5.0,48,0.00,,,0.00,meteohub,2013-05-24 04:08:00,
2013-05-23 21:12:00,60.3,41.0,29.92,West,280,3.0,5.0,49,0.00,,,0.00,meteohub,2013-05-24 04:12:00,
2013-05-23 21:17:00,60.1,40.8,29.92,NNW,342,2.0,5.0,49,0.00,,,0.00,meteohub,2013-05-24 04:17:00,
2013-05-23 21:22:00,59.7,41.0,29.93,West,264,0.0,5.0,50,0.00,,,0.00,meteohub,2013-05-24 04:22:00,
2013-05-23 21:27:00,59.4,40.6,29.93,West,259,1.0,4.0,50,0.00,,,0.00,meteohub,2013-05-24 04:27:00,
2013-05-23 21:32:00,59.2,41.0,29.93,West,259,1.0,4.0,51,0.00,,,0.00,meteohub,2013-05-24 04:32:00,
2013-05-23 21:37:00,59.0,40.8,29.94,West,280,1.0,1.0,51,0.00,,,0.00,meteohub,2013-05-24 04:37:00,
2013-05-23 21:42:00,58.6,41.0,29.94,NW,311,2.0,4.0,52,0.00,,,0.00,meteohub,2013-05-24 04:42:00,
2013-05-23 21:47:00,58.5,40.8,29.94,WSW,242,2.0,6.0,52,0.00,,,0.00,meteohub,2013-05-24 04:47:00,
2013-05-23 21:52:00,58.3,41.2,29.94,WSW,246,0.0,6.0,53,0.00,,,0.00,meteohub,2013-05-24 04:52:00,
2013-05-23 21:57:00,57.9,40.8,29.94,WSW,246,2.0,6.0,53,0.00,,,0.00,meteohub,2013-05-24 04:57:00,
2013-05-23 22:02:00,57.9,40.8,29.94,WNW,288,3.0,4.0,53,0.00,,,0.00,meteohub,2013-05-24 05:02:00,
2013-05-23 22:07:00,57.7,41.2,29.94,NW,323,1.0,4.0,54,0.00,,,0.00,meteohub,2013-05-24 05:07:00,
2013-05-23 22:12:00,57.6,41.0,29.94,West,277,1.0,4.0,54,0.00,,,0.00,meteohub,2013-05-24 05:12:00,
2013-05-23 22:17:00,57.2,41.2,29.94,West,271,1.0,4.0,55,0.00,,,0.00,meteohub,2013-05-24 05:17:00,
2013-05-23 22:22:00,57.0,41.0,29.95,NW,308,1.0,4.0,55,0.00,,,0.00,meteohub,2013-05-24 05:22:00,
2013-05-23 22:27:00,56.8,41.4,29.95,West,279,2.0,2.0,56,0.00,,,0.00,meteohub,2013-05-24 05:27:00,
2013-05-23 22:32:00,56.7,41.2,29.95,WNW,283,0.0,3.0,56,0.00,,,0.00,meteohub,2013-05-24 05:32:00,
2013-05-23 22:37:00,56.5,41.0,29.95,West,271,1.0,3.0,56,0.00,,,0.00,meteohub,2013-05-24 05:37:00,
2013-05-23 22:42:00,56.1,41.2,29.95,West,281,1.0,2.0,57,0.00,,,0.00,meteohub,2013-05-24 05:42:00,
2013-05-23 22:47:00,55.9,41.4,29.95,West,281,0.0,3.0,58,0.00,,,0.00,meteohub,2013-05-24 05:47:00,
2013-05-23 22:52:00,55.6,41.0,29.95,WNW,283,1.0,3.0,58,0.00,,,0.00,meteohub,2013-05-24 05:52:00,
2013-05-23 22:57:00,55.2,41.2,29.95,WNW,294,1.0,2.0,59,0.00,,,0.00,meteohub,2013-05-24 05:57:00,
2013-05-23 23:02:00,55.0,41.0,29.95,West,275,2.0,2.0,59,0.00,,,0.00,meteohub,2013-05-24 06:02:00,
2013-05-23 23:07:00,54.9,41.2,29.95,West,271,0.0,2.0,60,0.00,,,0.00,meteohub,2013-05-24 06:07:00,
2013-05-23 23:12:00,54.3,40.8,29.95,NW,306,2.0,2.0,60,0.00,,,0.00,meteohub,2013-05-24 06:12:00,
2013-05-23 23:17:00,54.1,41.0,29.95,NW,306,0.0,2.0,61,0.00,,,0.00,meteohub,2013-05-24 06:17:00,
2013-05-23 23:22:00,54.0,41.2,29.94,NW,304,1.0,2.0,62,0.00,,,0.00,meteohub,2013-05-24 06:22:00,
2013-05-23 23:27:00,53.8,41.0,29.94,NW,304,0.0,1.0,62,0.00,,,0.00,meteohub,2013-05-24 06:27:00,
2013-05-23 23:32:00,53.2,41.0,29.94,NW,304,0.0,1.0,63,0.00,,,0.00,meteohub,2013-05-24 06:32:00,
2013-05-23 23:38:00,53.1,40.8,29.94,West,276,1.0,1.0,63,0.00,,,0.00,meteohub,2013-05-24 06:38:00,
2013-05-23 23:43:00,52.9,41.0,29.94,West,275,0.0,1.0,64,0.00,,,0.00,meteohub,2013-05-24 06:43:00,
2013-05-23 23:48:00,52.3,41.0,29.94,West,275,0.0,2.0,65,0.00,,,0.00,meteohub,2013-05-24 06:48:00,
2013-05-23 23:53:00,52.2,40.8,29.94,West,275,0.0,2.0,65,0.00,,,0.00,meteohub,2013-05-24 06:53:00,
2013-05-23 23:58:00,52.0,41.0,29.94,West,273,0.0,2.0,66,0.00,,,0.00,meteohub,2013-05-24 06:58:00,